EZY26NB LKPR-EGCC

Flight info

Callsign EZY26NB
Flight time 1h 56m
Altitude 38000
Route BALTU DCT DONAD DCT VARIK L602 SODRO DCT KATCE DCT RKN L602 SPY DCT RAVLO Y70 OTBED
Aircraft A320/M-SDE2E3FGHIJ1RWXYZ/LB1

Departure

Time 2026-05-05 16:59
Airport Václav Havel Airport Prague (LKPR)

Arrival

Time 2026-05-05 18:56
Airport Manchester Airport (EGCC)
Time Latitude Longitude Altitude Speed Heading
2026-05-05 16:22 50.10926 14.26596 1174 ft 0 kts 214°
2026-05-05 16:47 50.10941 14.26614 1174 ft 3 kts 222°
2026-05-05 16:47 50.10957 14.26641 1174 ft 3 kts 244°
2026-05-05 16:47 50.10961 14.26669 1174 ft 3 kts 304°
2026-05-05 16:47 50.10957 14.26677 1174 ft 1 kts 328°
2026-05-05 16:48 50.10956 14.26678 1174 ft 1 kts 328°
2026-05-05 16:48 50.10953 14.26681 1174 ft 0 kts 328°
2026-05-05 16:54 50.10954 14.26680 1174 ft 1 kts 328°
2026-05-05 16:54 50.10965 14.26670 1171 ft 3 kts 328°
2026-05-05 16:54 50.10988 14.26647 1173 ft 7 kts 328°
2026-05-05 16:55 50.11041 14.26591 1174 ft 9 kts 318°
2026-05-05 16:55 50.11070 14.26509 1169 ft 8 kts 284°
2026-05-05 16:55 50.11079 14.26413 1171 ft 11 kts 277°
2026-05-05 16:55 50.11078 14.26246 1162 ft 18 kts 249°
2026-05-05 16:56 50.11021 14.26063 1161 ft 19 kts 244°
2026-05-05 16:56 50.10953 14.25906 1163 ft 16 kts 214°
2026-05-05 16:56 50.10877 14.25821 1165 ft 12 kts 214°
2026-05-05 16:56 50.10805 14.25744 1167 ft 13 kts 215°
2026-05-05 16:57 50.10725 14.25657 1171 ft 15 kts 214°
2026-05-05 16:57 50.10633 14.25558 1173 ft 17 kts 220°
2026-05-05 16:57 50.10585 14.25377 1170 ft 21 kts 257°
2026-05-05 16:57 50.10556 14.25155 1164 ft 6 kts 250°
2026-05-05 16:58 50.10518 14.25122 1167 ft 7 kts 170°
2026-05-05 16:58 50.10488 14.25180 1166 ft 8 kts 123°
2026-05-05 16:58 50.10443 14.25276 1170 ft 17 kts 127°
2026-05-05 16:58 50.10272 14.25632 1186 ft 76 kts 126°
2026-05-05 16:59 50.09813 14.26581 1207 ft 140 kts 126°
2026-05-05 16:59 50.09133 14.27993 1385 ft 175 kts 126°
2026-05-05 16:59 50.08345 14.29505 1995 ft 185 kts 128°
2026-05-05 16:59 50.07464 14.31040 2662 ft 195 kts 129°
2026-05-05 17:00 50.06539 14.32643 3350 ft 203 kts 128°
2026-05-05 17:00 50.05624 14.34398 3911 ft 218 kts 123°
2026-05-05 17:00 50.04729 14.36412 4283 ft 236 kts 122°
2026-05-05 17:00 50.03772 14.38608 4728 ft 256 kts 123°
2026-05-05 17:01 50.02730 14.40943 4969 ft 266 kts 124°
2026-05-05 17:01 50.01653 14.43285 4999 ft 265 kts 125°
2026-05-05 17:01 50.00651 14.45676 5007 ft 264 kts 112°
2026-05-05 17:01 50.00281 14.48442 5006 ft 262 kts 88°
2026-05-05 17:02 50.00697 14.51187 5011 ft 265 kts 64°
2026-05-05 17:02 50.01815 14.53407 5002 ft 268 kts 40°
2026-05-05 17:02 50.03336 14.55183 5528 ft 275 kts 38°
2026-05-05 17:02 50.04878 14.56955 6469 ft 277 kts 38°
2026-05-05 17:03 50.06443 14.58754 7250 ft 282 kts 38°
2026-05-05 17:03 50.08048 14.60603 8018 ft 288 kts 38°
2026-05-05 17:03 50.09746 14.62257 8754 ft 295 kts 26°
2026-05-05 17:03 50.11698 14.63324 9529 ft 300 kts 12°
2026-05-05 17:04 50.13807 14.63697 10017 ft 315 kts 359°
2026-05-05 17:04 50.16013 14.63262 10255 ft 336 kts 343°
2026-05-05 17:04 50.18242 14.61885 10794 ft 344 kts 333°
2026-05-05 17:04 50.20426 14.60279 11484 ft 349 kts 333°
2026-05-05 17:05 50.22640 14.58678 12202 ft 352 kts 332°
2026-05-05 17:05 50.24662 14.56547 12944 ft 352 kts 313°
2026-05-05 17:05 50.26115 14.53514 13657 ft 351 kts 294°
2026-05-05 17:05 50.26840 14.49895 14293 ft 350 kts 274°
2026-05-05 17:06 50.26962 14.46086 14943 ft 350 kts 269°
2026-05-05 17:06 50.27029 14.42261 15533 ft 354 kts 269°
2026-05-05 17:06 50.27091 14.38413 15740 ft 354 kts 269°
2026-05-05 17:06 50.27154 14.34570 15783 ft 353 kts 269°
2026-05-05 17:07 50.27220 14.30731 15888 ft 355 kts 269°
2026-05-05 17:07 50.27287 14.26895 16538 ft 357 kts 269°
2026-05-05 17:07 50.27356 14.23001 17185 ft 360 kts 269°
2026-05-05 17:07 50.27424 14.19077 17801 ft 363 kts 269°
2026-05-05 17:08 50.27494 14.15122 18366 ft 366 kts 269°
2026-05-05 17:08 50.27563 14.11138 18906 ft 368 kts 269°
2026-05-05 17:08 50.27629 14.07124 19451 ft 371 kts 269°
2026-05-05 17:08 50.27692 14.03069 19983 ft 373 kts 269°
2026-05-05 17:09 50.27753 13.98998 20525 ft 376 kts 269°
2026-05-05 17:09 50.27816 13.94902 21061 ft 379 kts 269°
2026-05-05 17:09 50.27877 13.90772 21607 ft 381 kts 268°
2026-05-05 17:09 50.27936 13.86611 22125 ft 384 kts 268°
2026-05-05 17:10 50.27993 13.82431 22644 ft 387 kts 268°
2026-05-05 17:10 50.28050 13.78203 23164 ft 390 kts 268°
2026-05-05 17:10 50.28108 13.73956 23613 ft 392 kts 268°
2026-05-05 17:10 50.28164 13.69744 24029 ft 394 kts 268°
2026-05-05 17:11 50.28220 13.65382 24451 ft 396 kts 268°
2026-05-05 17:11 50.28274 13.61074 24860 ft 398 kts 268°
2026-05-05 17:11 50.28323 13.56732 25259 ft 400 kts 268°
2026-05-05 17:11 50.28371 13.52364 25652 ft 402 kts 268°
2026-05-05 17:12 50.28418 13.47978 26036 ft 404 kts 268°
2026-05-05 17:12 50.28466 13.43575 26410 ft 406 kts 268°
2026-05-05 17:12 50.28514 13.39153 26776 ft 408 kts 268°
2026-05-05 17:12 50.28560 13.34714 27142 ft 410 kts 268°
2026-05-05 17:13 50.28601 13.30246 27505 ft 412 kts 268°
2026-05-05 17:13 50.28642 13.25764 27863 ft 413 kts 268°
2026-05-05 17:13 50.28656 13.24309 27975 ft 414 kts 268°
2026-05-05 17:14 50.28716 13.21057 28199 ft 416 kts 270°
2026-05-05 17:14 50.28818 13.16519 28528 ft 417 kts 268°
2026-05-05 17:14 50.28861 13.11963 28862 ft 419 kts 268°
2026-05-05 17:14 50.28872 13.07403 29197 ft 421 kts 267°
2026-05-05 17:15 50.28872 13.04371 29411 ft 422 kts 267°
2026-05-05 17:15 50.28883 12.98458 29803 ft 424 kts 267°
2026-05-05 17:16 50.28896 12.93836 30057 ft 426 kts 267°
2026-05-05 17:16 50.28914 12.89189 30305 ft 428 kts 267°
2026-05-05 17:16 50.28937 12.84522 30550 ft 429 kts 267°
2026-05-05 17:16 50.28965 12.79959 30795 ft 430 kts 268°
2026-05-05 17:17 50.28994 12.75170 31088 ft 430 kts 268°
2026-05-05 17:17 50.29020 12.70502 31448 ft 429 kts 267°
2026-05-05 17:17 50.29043 12.65852 31802 ft 427 kts 267°
2026-05-05 17:17 50.29062 12.61286 32144 ft 425 kts 267°
2026-05-05 17:18 50.29076 12.56674 32500 ft 424 kts 267°
2026-05-05 17:18 50.29088 12.52069 32854 ft 422 kts 267°
2026-05-05 17:18 50.29098 12.47490 33204 ft 421 kts 266°
2026-05-05 17:18 50.29139 12.42915 33525 ft 422 kts 270°
2026-05-05 17:19 50.29538 12.38362 33836 ft 425 kts 278°
2026-05-05 17:19 50.30388 12.33920 34085 ft 429 kts 287°
2026-05-05 17:19 50.31608 12.29657 34334 ft 430 kts 290°
2026-05-05 17:19 50.32877 12.25393 34584 ft 430 kts 290°
2026-05-05 17:20 50.34135 12.21149 34820 ft 430 kts 290°
2026-05-05 17:20 50.35410 12.16916 35084 ft 430 kts 291°
2026-05-05 17:20 50.36737 12.12720 35349 ft 430 kts 292°
2026-05-05 17:20 50.38097 12.08552 35611 ft 430 kts 292°
2026-05-05 17:21 50.39477 12.04382 35771 ft 431 kts 293°
2026-05-05 17:21 50.40858 12.00202 35926 ft 432 kts 292°
2026-05-05 17:21 50.42230 11.96001 36098 ft 432 kts 292°
2026-05-05 17:22 50.44934 11.87586 36477 ft 432 kts 292°
2026-05-05 17:22 50.45845 11.84802 36614 ft 433 kts 295°
2026-05-05 17:22 50.47517 11.80854 36807 ft 438 kts 304°
2026-05-05 17:22 50.49494 11.77207 36983 ft 439 kts 306°
2026-05-05 17:23 50.51488 11.73568 37160 ft 439 kts 306°
2026-05-05 17:23 50.53473 11.69933 37334 ft 438 kts 306°
2026-05-05 17:23 50.56100 11.65115 37564 ft 438 kts 306°
2026-05-05 17:23 50.58081 11.61476 37739 ft 438 kts 306°
2026-05-05 17:24 50.59422 11.59009 37785 ft 438 kts 306°
2026-05-05 17:24 50.63375 11.51719 37791 ft 437 kts 306°
2026-05-05 17:25 50.67316 11.44423 37800 ft 437 kts 306°
2026-05-05 17:25 50.71251 11.37107 37798 ft 437 kts 306°
2026-05-05 17:26 50.75185 11.29789 37798 ft 437 kts 306°
2026-05-05 17:26 50.79119 11.22459 37806 ft 438 kts 306°
2026-05-05 17:27 50.83062 11.15086 37802 ft 439 kts 305°
2026-05-05 17:27 50.87001 11.07693 37802 ft 439 kts 305°
2026-05-05 17:28 50.90915 11.00334 37799 ft 440 kts 305°
2026-05-05 17:28 50.94851 10.92916 37805 ft 440 kts 305°
2026-05-05 17:29 50.98775 10.85477 37822 ft 440 kts 305°
2026-05-05 17:29 51.02701 10.78013 37815 ft 440 kts 305°
2026-05-05 17:30 51.06628 10.70555 37818 ft 440 kts 305°
2026-05-05 17:30 51.10552 10.63076 37830 ft 440 kts 305°
2026-05-05 17:31 51.14458 10.55588 37836 ft 439 kts 304°
2026-05-05 17:31 51.18351 10.48103 37850 ft 439 kts 305°
2026-05-05 17:32 51.22239 10.40600 37834 ft 439 kts 305°
2026-05-05 17:32 51.25712 10.32705 37822 ft 431 kts 291°
2026-05-05 17:33 51.28065 10.23944 37811 ft 429 kts 288°
2026-05-05 17:33 51.30391 10.15166 37808 ft 429 kts 288°
2026-05-05 17:34 51.32716 10.06380 37833 ft 429 kts 288°
2026-05-05 17:34 51.35031 9.97571 37812 ft 430 kts 288°
2026-05-05 17:35 51.37314 9.88791 37812 ft 431 kts 288°
2026-05-05 17:35 51.39615 9.79934 37814 ft 431 kts 288°
2026-05-05 17:36 51.41919 9.71082 37820 ft 430 kts 288°
2026-05-05 17:36 51.44213 9.62224 37836 ft 429 kts 288°
2026-05-05 17:37 51.46481 9.53378 37831 ft 429 kts 288°
2026-05-05 17:37 51.48753 9.44501 37824 ft 429 kts 288°
2026-05-05 17:38 51.51027 9.35639 37829 ft 430 kts 288°
2026-05-05 17:38 51.53292 9.26746 37829 ft 430 kts 288°
2026-05-05 17:39 51.55537 9.17846 37828 ft 430 kts 288°
2026-05-05 17:39 51.57777 9.08972 37836 ft 430 kts 288°
2026-05-05 17:40 51.60011 9.00071 37829 ft 429 kts 288°
2026-05-05 17:40 51.62232 8.91189 37834 ft 429 kts 288°
2026-05-05 17:41 51.64462 8.82232 37840 ft 430 kts 287°
2026-05-05 17:41 51.66679 8.73303 37842 ft 430 kts 287°
2026-05-05 17:42 51.68891 8.64355 37847 ft 430 kts 287°
2026-05-05 17:42 51.71093 8.55431 37843 ft 430 kts 287°
2026-05-05 17:43 51.73297 8.46467 37844 ft 430 kts 287°
2026-05-05 17:43 51.75497 8.37478 37855 ft 430 kts 287°
2026-05-05 17:44 51.77677 8.28492 37858 ft 430 kts 287°
2026-05-05 17:44 51.79841 8.19525 37868 ft 429 kts 287°
2026-05-05 17:45 51.81998 8.10594 37872 ft 429 kts 287°
2026-05-05 17:45 51.84159 8.01598 37868 ft 428 kts 287°
2026-05-05 17:46 51.86314 7.92609 37866 ft 428 kts 287°
2026-05-05 17:46 51.88453 7.83623 37863 ft 428 kts 287°
2026-05-05 17:47 51.90586 7.74618 37868 ft 428 kts 287°
2026-05-05 17:47 51.92718 7.65609 37863 ft 429 kts 287°
2026-05-05 17:48 51.94844 7.56569 37865 ft 429 kts 287°
2026-05-05 17:48 51.96962 7.47534 37862 ft 429 kts 287°
2026-05-05 17:49 51.99076 7.38464 37870 ft 429 kts 287°
2026-05-05 17:49 52.01182 7.29398 37877 ft 429 kts 287°
2026-05-05 17:50 52.03285 7.20320 37885 ft 430 kts 287°
2026-05-05 17:50 52.05388 7.11202 37890 ft 430 kts 287°
2026-05-05 17:51 52.07471 7.02137 37883 ft 430 kts 287°
2026-05-05 17:51 52.09554 6.93007 37899 ft 429 kts 286°
2026-05-05 17:52 52.11622 6.83898 37921 ft 429 kts 287°
2026-05-05 17:52 52.13671 6.74798 37908 ft 428 kts 286°
2026-05-05 17:53 52.15706 6.65691 37896 ft 428 kts 286°
2026-05-05 17:53 52.17728 6.56581 37893 ft 427 kts 286°
2026-05-05 17:54 52.19741 6.47463 37896 ft 427 kts 286°
2026-05-05 17:54 52.21743 6.38355 37907 ft 427 kts 286°
2026-05-05 17:55 52.23733 6.29214 37906 ft 427 kts 286°
2026-05-05 17:55 52.25705 6.20144 37902 ft 427 kts 286°
2026-05-05 17:56 52.27693 6.10979 37906 ft 427 kts 286°
2026-05-05 17:56 52.29662 6.01884 37904 ft 427 kts 286°
2026-05-05 17:57 52.31636 5.92713 37918 ft 427 kts 286°
2026-05-05 17:57 52.33596 5.83533 37916 ft 428 kts 286°
2026-05-05 17:58 52.35550 5.74343 37916 ft 428 kts 286°
2026-05-05 17:58 52.37497 5.65149 37910 ft 428 kts 286°
2026-05-05 17:59 52.39442 5.55944 37935 ft 428 kts 286°
2026-05-05 17:59 52.41373 5.46738 37937 ft 427 kts 286°
2026-05-05 18:00 52.42973 5.39082 37923 ft 428 kts 285°
2026-05-05 18:00 52.45183 5.28444 37907 ft 429 kts 285°
2026-05-05 18:01 52.47108 5.19174 37904 ft 430 kts 285°
2026-05-05 18:01 52.49025 5.09903 37907 ft 430 kts 285°
2026-05-05 18:02 52.50932 5.00591 37913 ft 430 kts 285°
2026-05-05 18:02 52.52827 4.91276 37918 ft 430 kts 285°
2026-05-05 18:03 52.54742 4.81953 37912 ft 431 kts 286°
2026-05-05 18:03 52.56834 4.72772 37911 ft 432 kts 288°
2026-05-05 18:04 52.59014 4.63556 37916 ft 432 kts 288°
2026-05-05 18:04 52.61145 4.54303 37922 ft 432 kts 287°
2026-05-05 18:05 52.63229 4.45031 37923 ft 432 kts 287°
2026-05-05 18:05 52.65315 4.35745 37933 ft 432 kts 287°
2026-05-05 18:06 52.67403 4.26447 37934 ft 432 kts 287°
2026-05-05 18:06 52.69479 4.17152 37952 ft 432 kts 287°
2026-05-05 18:07 52.71548 4.07851 37959 ft 432 kts 287°
2026-05-05 18:07 52.73606 3.98540 37980 ft 431 kts 287°
2026-05-05 18:08 52.75646 3.89231 37969 ft 431 kts 286°
2026-05-05 18:08 52.77686 3.79930 37963 ft 431 kts 287°
2026-05-05 18:09 52.79724 3.70619 37960 ft 431 kts 286°
2026-05-05 18:09 52.81750 3.61300 37972 ft 431 kts 286°
2026-05-05 18:10 52.83765 3.51969 37987 ft 431 kts 286°
2026-05-05 18:10 52.85756 3.42698 37972 ft 431 kts 286°
2026-05-05 18:11 52.87436 3.34858 37965 ft 431 kts 286°
2026-05-05 18:11 52.89441 3.25494 37964 ft 432 kts 286°
2026-05-05 18:12 52.91431 3.16114 37966 ft 431 kts 284°
2026-05-05 18:12 52.92810 3.06501 37968 ft 429 kts 279°
2026-05-05 18:13 52.94081 2.96849 37980 ft 429 kts 279°
2026-05-05 18:13 52.95348 2.87195 37979 ft 428 kts 279°
2026-05-05 18:14 52.96616 2.77539 37984 ft 428 kts 279°
2026-05-05 18:14 52.97865 2.67875 37993 ft 428 kts 279°
2026-05-05 18:15 52.99103 2.58243 37995 ft 427 kts 279°
2026-05-05 18:15 53.00329 2.48661 37997 ft 426 kts 279°
2026-05-05 18:16 53.01551 2.39043 37997 ft 425 kts 279°
2026-05-05 18:16 53.02762 2.29435 37989 ft 425 kts 279°
2026-05-05 18:17 53.03961 2.19815 37987 ft 425 kts 279°
2026-05-05 18:17 53.05144 2.10194 37986 ft 425 kts 279°
2026-05-05 18:18 53.06332 2.00554 37995 ft 425 kts 279°
2026-05-05 18:18 53.07506 1.90911 37988 ft 425 kts 279°
2026-05-05 18:19 53.08679 1.81269 37992 ft 425 kts 279°
2026-05-05 18:19 53.09853 1.71619 37989 ft 426 kts 279°
2026-05-05 18:20 53.11011 1.62007 37987 ft 425 kts 279°
2026-05-05 18:20 53.12156 1.52348 37992 ft 425 kts 279°
2026-05-05 18:21 53.13294 1.42680 37989 ft 425 kts 279°
2026-05-05 18:21 53.14425 1.33008 37986 ft 426 kts 279°
2026-05-05 18:22 53.15546 1.23324 37983 ft 426 kts 279°
2026-05-05 18:22 53.16665 1.13630 37987 ft 426 kts 279°
2026-05-05 18:23 53.17766 1.03997 37991 ft 426 kts 278°
2026-05-05 18:23 53.18317 0.99146 37880 ft 427 kts 279°
2026-05-05 18:23 53.18867 0.94281 37601 ft 427 kts 278°
2026-05-05 18:23 53.19414 0.89420 37340 ft 426 kts 278°
2026-05-05 18:24 53.19959 0.84562 37064 ft 426 kts 278°
2026-05-05 18:24 53.20506 0.79686 36801 ft 430 kts 278°
2026-05-05 18:24 53.21055 0.74807 36515 ft 426 kts 278°
2026-05-05 18:24 53.21596 0.69973 36002 ft 422 kts 278°
2026-05-05 18:25 53.22126 0.65181 35507 ft 418 kts 278°
2026-05-05 18:25 53.22480 0.61968 35184 ft 416 kts 278°
2026-05-05 18:25 53.23165 0.55715 34514 ft 411 kts 278°
2026-05-05 18:25 53.23676 0.51033 34017 ft 409 kts 278°
2026-05-05 18:26 53.24182 0.46386 33464 ft 406 kts 278°
2026-05-05 18:26 53.24680 0.41783 32985 ft 401 kts 277°
2026-05-05 18:26 53.25173 0.37226 32502 ft 397 kts 277°
2026-05-05 18:26 53.25660 0.32713 32060 ft 393 kts 277°
2026-05-05 18:27 53.26140 0.28242 31589 ft 390 kts 277°
2026-05-05 18:27 53.26614 0.23820 31030 ft 389 kts 277°
2026-05-05 18:27 53.27091 0.19344 30399 ft 390 kts 277°
2026-05-05 18:27 53.27563 0.14879 29741 ft 390 kts 276°
2026-05-05 18:28 53.28504 0.05928 28334 ft 394 kts 278°
2026-05-05 18:28 53.29298 0.01538 27647 ft 397 kts 289°
2026-05-05 18:28 53.30496 -0.02641 26991 ft 398 kts 294°
2026-05-05 18:29 53.31721 -0.06783 26355 ft 397 kts 294°
2026-05-05 18:29 53.32938 -0.10924 25720 ft 396 kts 293°
2026-05-05 18:29 53.34146 -0.15059 25095 ft 395 kts 293°
2026-05-05 18:29 53.35336 -0.19145 24499 ft 393 kts 293°
2026-05-05 18:30 53.36530 -0.23258 23902 ft 392 kts 293°
2026-05-05 18:30 53.37722 -0.27361 23275 ft 390 kts 293°
2026-05-05 18:30 53.38907 -0.31441 22574 ft 389 kts 293°
2026-05-05 18:30 53.40089 -0.35516 21899 ft 388 kts 293°
2026-05-05 18:31 53.41256 -0.39556 21556 ft 380 kts 293°
2026-05-05 18:31 53.42389 -0.43485 21293 ft 370 kts 293°
2026-05-05 18:31 53.43495 -0.47328 21039 ft 361 kts 293°
2026-05-05 18:31 53.44568 -0.51073 20800 ft 352 kts 293°
2026-05-05 18:32 53.45617 -0.54727 20542 ft 344 kts 293°
2026-05-05 18:32 53.46638 -0.58292 20289 ft 335 kts 293°
2026-05-05 18:32 53.47636 -0.61791 20034 ft 328 kts 293°
2026-05-05 18:32 53.48611 -0.65214 19785 ft 323 kts 293°
2026-05-05 18:33 53.49558 -0.68536 19533 ft 320 kts 294°
2026-05-05 18:33 53.50533 -0.71957 19303 ft 319 kts 294°
2026-05-05 18:33 53.51475 -0.75267 19054 ft 318 kts 294°
2026-05-05 18:33 53.52425 -0.78608 18808 ft 317 kts 294°
2026-05-05 18:34 53.53374 -0.81945 18570 ft 316 kts 294°
2026-05-05 18:34 53.54317 -0.85274 18333 ft 315 kts 294°
2026-05-05 18:34 53.55254 -0.88588 18066 ft 313 kts 294°
2026-05-05 18:34 53.56185 -0.91889 17730 ft 313 kts 294°
2026-05-05 18:35 53.57123 -0.95219 17187 ft 316 kts 294°
2026-05-05 18:35 53.58065 -0.98573 16660 ft 318 kts 294°
2026-05-05 18:35 53.59010 -1.01939 16146 ft 320 kts 294°
2026-05-05 18:35 53.59963 -1.05337 15634 ft 321 kts 294°
2026-05-05 18:36 53.60844 -1.08817 15131 ft 322 kts 287°
2026-05-05 18:36 53.61376 -1.12478 14640 ft 323 kts 283°
2026-05-05 18:36 53.61876 -1.16163 14157 ft 323 kts 283°
2026-05-05 18:36 53.62381 -1.19854 13657 ft 324 kts 283°
2026-05-05 18:37 53.62882 -1.23505 13116 ft 324 kts 283°
2026-05-05 18:37 53.63388 -1.27203 12603 ft 323 kts 283°
2026-05-05 18:37 53.63890 -1.30884 12143 ft 321 kts 283°
2026-05-05 18:37 53.64381 -1.34501 11889 ft 313 kts 283°
2026-05-05 18:38 53.64858 -1.38036 11602 ft 306 kts 283°
2026-05-05 18:38 53.65320 -1.41478 11354 ft 298 kts 283°
2026-05-05 18:38 53.65772 -1.44855 11103 ft 292 kts 283°
2026-05-05 18:38 53.66216 -1.48174 10855 ft 286 kts 283°
2026-05-05 18:39 53.66647 -1.51408 10611 ft 281 kts 282°
2026-05-05 18:39 53.66799 -1.54676 10370 ft 280 kts 272°
2026-05-05 18:39 53.66817 -1.57957 10121 ft 280 kts 272°
2026-05-05 18:39 53.66834 -1.61228 9935 ft 278 kts 272°
2026-05-05 18:40 53.66848 -1.64481 9802 ft 278 kts 272°
2026-05-05 18:40 53.66859 -1.67726 9670 ft 276 kts 272°
2026-05-05 18:40 53.66867 -1.70948 9533 ft 276 kts 272°
2026-05-05 18:40 53.66875 -1.74126 9401 ft 274 kts 272°
2026-05-05 18:41 53.66885 -1.77336 9266 ft 272 kts 273°
2026-05-05 18:41 53.66897 -1.80531 9126 ft 273 kts 272°
2026-05-05 18:41 53.66907 -1.83730 8999 ft 272 kts 272°
2026-05-05 18:41 53.66914 -1.86915 8854 ft 272 kts 272°
2026-05-05 18:42 53.66916 -1.90128 8724 ft 274 kts 271°
2026-05-05 18:42 53.66918 -1.93329 8591 ft 273 kts 272°
2026-05-05 18:42 53.66919 -1.96519 8461 ft 270 kts 272°
2026-05-05 18:42 53.66920 -1.99687 8332 ft 271 kts 271°
2026-05-05 18:43 53.66919 -2.02864 8202 ft 269 kts 272°
2026-05-05 18:43 53.66903 -2.06022 8073 ft 270 kts 268°
2026-05-05 18:43 53.66450 -2.09093 7942 ft 272 kts 251°
2026-05-05 18:43 53.65547 -2.11905 7805 ft 276 kts 237°
2026-05-05 18:44 53.64377 -2.14484 7680 ft 277 kts 231°
2026-05-05 18:44 53.63117 -2.16942 7552 ft 276 kts 230°
2026-05-05 18:44 53.61864 -2.19335 7416 ft 276 kts 231°
2026-05-05 18:44 53.60588 -2.21746 7121 ft 273 kts 230°
2026-05-05 18:45 53.59340 -2.24144 6692 ft 272 kts 230°
2026-05-05 18:45 53.58110 -2.26547 6304 ft 270 kts 230°
2026-05-05 18:45 53.56816 -2.28824 5869 ft 269 kts 222°
2026-05-05 18:45 53.55470 -2.30943 5434 ft 268 kts 225°
2026-05-05 18:46 53.54124 -2.33179 4988 ft 268 kts 225°
2026-05-05 18:46 53.52895 -2.35243 4583 ft 267 kts 225°
2026-05-05 18:46 53.51531 -2.37553 4100 ft 267 kts 225°
2026-05-05 18:46 53.50227 -2.39785 3645 ft 267 kts 225°
2026-05-05 18:47 53.48920 -2.42015 3179 ft 268 kts 222°
2026-05-05 18:47 53.47612 -2.44175 2998 ft 257 kts 225°
2026-05-05 18:47 53.46437 -2.46229 2954 ft 242 kts 225°
2026-05-05 18:47 53.45281 -2.48254 2820 ft 233 kts 225°
2026-05-05 18:48 53.44211 -2.50132 2953 ft 213 kts 225°
2026-05-05 18:48 53.43214 -2.51879 3002 ft 204 kts 225°
2026-05-05 18:48 53.42241 -2.53594 3004 ft 202 kts 225°
2026-05-05 18:48 53.41279 -2.55294 3007 ft 201 kts 225°
2026-05-05 18:49 53.40295 -2.56954 3005 ft 200 kts 214°
2026-05-05 18:49 53.39040 -2.57875 3005 ft 199 kts 186°
2026-05-05 18:49 53.37681 -2.57644 3011 ft 198 kts 163°
2026-05-05 18:49 53.36350 -2.57067 3010 ft 197 kts 164°
2026-05-05 18:50 53.35031 -2.56500 3059 ft 193 kts 162°
2026-05-05 18:50 53.33742 -2.55950 3017 ft 189 kts 162°
2026-05-05 18:50 53.32484 -2.55417 3004 ft 188 kts 162°
2026-05-05 18:50 53.31212 -2.54877 3003 ft 188 kts 162°
2026-05-05 18:51 53.29944 -2.54337 3005 ft 188 kts 161°
2026-05-05 18:51 53.28698 -2.53709 3006 ft 185 kts 150°
2026-05-05 18:51 53.27650 -2.52538 3007 ft 179 kts 132°
2026-05-05 18:51 53.26934 -2.50983 3001 ft 162 kts 114°
2026-05-05 18:52 53.26558 -2.49266 3003 ft 154 kts 98°
2026-05-05 18:52 53.26492 -2.47502 2969 ft 153 kts 83°
2026-05-05 18:52 53.26726 -2.45780 2818 ft 151 kts 68°
2026-05-05 18:52 53.27243 -2.44250 2626 ft 151 kts 52°
2026-05-05 18:53 53.27903 -2.42895 2347 ft 149 kts 52°
2026-05-05 18:53 53.28591 -2.41483 2240 ft 159 kts 51°
2026-05-05 18:53 53.29275 -2.40075 2018 ft 153 kts 52°
2026-05-05 18:53 53.29929 -2.38732 1821 ft 147 kts 52°
2026-05-05 18:54 53.30563 -2.37424 1621 ft 146 kts 51°
2026-05-05 18:54 53.31182 -2.36151 1415 ft 134 kts 51°
2026-05-05 18:54 53.31744 -2.34992 1220 ft 124 kts 51°
2026-05-05 18:54 53.32273 -2.33882 938 ft 122 kts 52°
2026-05-05 18:55 53.32811 -2.32756 730 ft 126 kts 51°
2026-05-05 18:55 53.33374 -2.31630 619 ft 127 kts 51°
2026-05-05 18:55 53.33927 -2.30490 427 ft 125 kts 51°
2026-05-05 18:55 53.34465 -2.29366 281 ft 123 kts 51°
2026-05-05 18:56 53.34997 -2.28274 235 ft 113 kts 51°
2026-05-05 18:56 53.35311 -2.27626 241 ft 28 kts 51°
2026-05-05 18:56 53.35404 -2.27428 244 ft 33 kts 52°
2026-05-05 18:56 53.35557 -2.27119 253 ft 22 kts 43°
2026-05-05 18:57 53.35643 -2.27118 257 ft 10 kts 332°
2026-05-05 18:57 53.35693 -2.27177 255 ft 8 kts 322°
2026-05-05 18:57 53.35734 -2.27232 255 ft 6 kts 321°
2026-05-05 18:57 53.35765 -2.27274 255 ft 5 kts 318°
2026-05-05 18:58 53.35777 -2.27323 255 ft 4 kts 268°
2026-05-05 18:58 53.35768 -2.27361 255 ft 3 kts 243°
2026-05-05 18:58 53.35758 -2.27385 255 ft 2 kts 233°
2026-05-05 18:58 53.35751 -2.27399 255 ft 1 kts 232°
2026-05-05 18:59 53.35748 -2.27405 255 ft 0 kts 232°
2026-05-05 18:59 53.35745 -2.27413 255 ft 2 kts 232°
2026-05-05 18:59 53.35715 -2.27474 254 ft 14 kts 231°
2026-05-05 18:59 53.35681 -2.27548 248 ft 11 kts 243°
2026-05-05 19:00 53.35705 -2.27623 247 ft 0 kts 333°
2026-05-05 19:00 53.35742 -2.27642 250 ft 6 kts 339°
2026-05-05 19:00 53.35761 -2.27655 251 ft 1 kts 336°
2026-05-05 19:01 53.35763 -2.27656 251 ft 2 kts 336°
2026-05-05 19:01 53.35804 -2.27709 252 ft 11 kts 311°
2026-05-05 19:01 53.35882 -2.27726 255 ft 15 kts
2026-05-05 19:01 53.35990 -2.27757 255 ft 17 kts 326°
2026-05-05 19:02 53.36080 -2.27872 255 ft 18 kts 322°
2026-05-05 19:02 53.36172 -2.28000 255 ft 9 kts 302°
2026-05-05 19:02 53.36223 -2.28075 255 ft 12 kts 314°
2026-05-05 19:02 53.36296 -2.28202 255 ft 18 kts 314°
2026-05-05 19:03 53.36370 -2.28328 255 ft 13 kts 315°
2026-05-05 19:03 53.36411 -2.28446 255 ft 11 kts 294°
2026-05-05 19:03 53.36455 -2.28545 255 ft 10 kts 314°
2026-05-05 19:03 53.36500 -2.28623 255 ft 9 kts 316°
2026-05-05 19:04 53.36543 -2.28695 255 ft 11 kts 315°
2026-05-05 19:04 53.36593 -2.28817 255 ft 15 kts 300°
2026-05-05 19:04 53.36671 -2.28960 255 ft 19 kts 315°
2026-05-05 19:04 53.36763 -2.29071 255 ft 13 kts 359°
2026-05-05 19:05 53.36850 -2.29012 255 ft 13 kts 38°
2026-05-05 19:05 53.36880 -2.28964 255 ft 1 kts 44°
2026-05-05 19:05 53.36894 -2.28941 255 ft 5 kts 44°
2026-05-05 19:05 53.36898 -2.28892 255 ft 3 kts 129°
2026-05-05 19:06 53.36884 -2.28868 255 ft 2 kts 132°
2026-05-05 19:06 53.36875 -2.28853 255 ft 1 kts 134°
2026-05-05 19:06 53.36870 -2.28844 255 ft 1 kts 134°
2026-05-05 19:06 53.36867 -2.28840 255 ft 0 kts 134°
2026-05-05 19:07 53.36867 -2.28839 255 ft 1 kts 134°
2026-05-05 19:07 53.36864 -2.28834 255 ft 0 kts 134°